Location: Columbia
(38.9520°N, 92.3340°W)
Time: 15:18:35
(UTC-05:00)

FENGYUN 3A - Visible Passes

Search period start: 01 October 2014 00:00
Search period end: 11 October 2014 00:00
Orbit: 821 x 833 km, 98.5° (Epoch: 01 October)

Date Brightness Start Highest point End Pass type
(mag) Time Alt. Az. Time Alt. Az. Time Alt. Az.
01 Oct 5.5 20:40:52 15° NE 20:40:52 15° NE 20:42:26 10° NNE visible
01 Oct 5.8 22:22:23 20° NNW 22:22:23 20° NNW 22:24:02 10° NNW visible
02 Oct 5.8 20:22:03 11° NE 20:22:03 11° NE 20:22:28 10° NE visible
02 Oct 5.6 22:03:34 22° NNW 22:03:34 22° NNW 22:05:23 10° NNW visible
03 Oct 5.5 21:44:45 22° N 21:44:45 22° N 21:46:37 10° N visible
04 Oct 5.5 21:25:56 20° N 21:25:56 20° N 21:27:42 10° N visible
05 Oct 5.6 21:07:08 17° NNE 21:07:08 17° NNE 21:08:39 10° N visible
05 Oct 6.5 22:48:38 12° NW 22:48:38 12° NW 22:49:05 10° NNW visible
06 Oct 5.7 20:48:19 14° NNE 20:48:19 14° NNE 20:49:24 10° NNE visible
06 Oct 6.2 22:29:50 14° NNW 22:29:50 14° NNW 22:30:38 10° NNW visible
07 Oct 5.8 20:29:30 11° NNE 20:29:30 11° NNE 20:29:45 10° NNE visible
07 Oct 6.1 22:11:01 16° NNW 22:11:01 16° NNW 22:12:03 10° NNW visible
08 Oct 5.9 21:52:12 17° N 21:52:12 17° N 21:53:19 10° N visible
09 Oct 5.8 21:33:23 16° N 21:33:23 16° N 21:34:27 10° N visible
10 Oct 5.8 21:14:34 14° N 21:14:34 14° N 21:15:28 10° N visible
